RH
29 29 31 33 30 22 24 34 51 60 73 100 100 75 69 65 60 70 100 100 88 58 41 42 41 77 99 88 80 98 100 93 91 99 100 100 100 100 100 100 83 65 73 78 100 100 97 84 66
36 34 30 25 19 18 22 29 31 43 55 80 100 80 75 62 54 51 95 94 95 85 58 54 50 50 73 76 83 74 81 83 70 69 78 93 100 100 100 96 89 78 79 66 60 100 100 97 80
44 39 36 29 18 15 20 27 27 29 41 56 80 74 85 72 64 46 54 84 95 100 74 67 52 45 54 62 77 64 78 83 72 66 73 75 83 100 100 94 89 91 88 68 59 100 100 100 92
46 49 34 27 14 13 19 23 26 24 27 36 61 83 67 80 74 59 55 58 72 99 94 87 79 62 56 59 63 69 74 95 100 87 76 71 73 100 100 100 100 85 86 100 56 95 100 100 100
52 41 36 21 13 17 21 23 25 23 22 28 37 62 80 89 81 73 64 55 64 84 93 95 87 78 64 83 66 75 87 88 90 99 100 94 73 87 100 100 100 100 86 100 38 47 100 100 100
45 33 24 17 14 20 19 21 22 23 22 21 27 46 69 70 68 74 68 57 59 66 78 83 88 85 67 84 81 80 78 82 99 100 100 100 96 81 100 100 100 99 94 97 60 64 100 100 98
28 28 21 16 15 17 20 21 23 22 25 24 30 35 55 71 64 59 70 58 55 59 63 68 82 87 80 85 89 91 85 85 98 100 100 100 100 100 99 100 100 100 100 100 99 84 96 92 100
26 24 22 16 13 14 26 24 24 25 23 35 38 43 43 48 63 60 64 65 52 55 58 59 59 84 99 86 100 100 100 100 100 100 100 100 100 100 100 96 100 100 100 98 96 74 99 100 100
20 20 16 16 12 16 33 27 25 30 29 34 43 49 50 45 50 61 60 62 58 46 55 57 55 59 87 100 99 100 100 100 100 100 100 100 100 100 100 92 100 96 100 100 100 90 95 100 86
12 12 12 12 13 19 31 26 26 29 28 24 41 63 51 40 40 53 60 58 59 50 41 48 43 49 64 74 83 99 100 100 100 100 100 100 98 100 99 78 97 100 100 98 100 97 100 93 100
6 5 6 10 11 19 27 19 23 25 25 22 36 93 57 47 37 40 50 55 57 54 42 33 36 33 36 65 72 97 75 94 100 100 100 100 100 100 100 100 98 93 100 100 100 72 99 100 100
4 6 8 11 13 13 17 16 22 24 19 21 35 80 60 33 28 32 39 43 54 51 47 37 40 34 27 32 40 68 100 90 100 100 100 100 100 100 97 100 100 66 100 100 92 100 100 100 89
4 6 4 6 6 7 9 12 17 19 25 24 32 55 68 36 28 25 32 35 46 49 48 40 33 31 25 24 27 88 98 100 100 87 98 100 100 100 100 100 100 88 100 100 73 87 100 97 89
4 5 5 5 6 7 10 13 16 19 27 33 42 52 51 30 28 22 25 29 34 43 44 42 36 38 28 30 20 47 100 100 100 91 63 97 93 92 87 90 78 88 100 100 82 98 100 100 85
4 4 4 6 7 9 13 12 16 24 29 35 50 49 48 31 25 21 25 26 28 30 37 38 39 38 49 34 29 50 100 100 100 98 99 69 89 89 85 84 74 84 100 100 99 100 100 100 97
4 5 6 7 7 8 9 12 20 27 34 46 60 64 57 35 27 24 24 22 23 26 29 32 32 34 43 51 38 21 100 100 94 100 94 47 56 99 96 85 78 100 100 86 98 100 100 100 86
5 5 6 5 5 5 6 18 24 28 32 43 61 75 70 51 36 29 28 22 18 20 23 29 29 30 29 40 29 33 100 100 100 94 77 33 32 70 76 84 83 86 100 100 100 100 100 100 76
4 4 6 5 5 4 4 17 24 30 33 50 64 93 68 53 44 44 33 28 21 18 19 22 27 29 28 27 20 15 52 100 100 100 100 35 29 33 98 98 100 100 100 100 100 100 100 97 89
3 5 6 6 5 4 4 11 23 31 40 61 86 94 81 78 76 54 35 28 23 15 15 17 21 29 30 25 24 16 17 51 100 100 99 94 99 46 94 100 100 100 100 100 100 97 87 76 81
3 4 5 5 5 4 5 9 26 33 44 62 70 100 100 100 100 75 46 34 29 22 14 14 18 24 29 30 25 23 30 100 100 100 98 75 94 100 68 73 97 100 100 100 100 100 100 90 95
3 4 4 5 4 5 5 11 20 31 55 62 88 100 100 100 100 100 70 46 41 33 19 14 16 20 27 42 33 30 52 100 100 100 85 100 94 76 100 91 100 100 100 100 100 96 99 99 100
3 3 3 4 4 6 7 12 24 35 38 64 86 100 100 100 100 100 91 58 49 46 24 15 14 17 26 46 43 41 97 100 100 100 94 100 100 73 94 99 88 90 100 100 100 100 71 84 100
3 3 3 4 4 6 7 10 20 41 56 88 100 100 100 100 100 100 100 83 71 49 31 22 17 15 17 37 46 46 58 79 100 100 72 88 100 100 92 100 100 100 96 87 77 100 100 100 100
3 3 4 4 5 6 7 10 20 35 55 73 100 100 100 100 100 100 100 100 88 74 77 48 28 16 16 28 45 51 63 73 100 100 95 100 99 97 100 100 100 100 100 99 95 96 100 100 100
4 3 4 5 5 8 8 12 22 37 63 82 100 100 100 100 100 99 100 100 98 100 98 40 24 22 20 28 42 71 86 100 100 100 100 100 93 99 100 100 100 100 100 100 100 100 100 100 100
4 4 4 5 6 8 8 12 19 38 74 96 100 96 100 100 100 93 100 100 100 100 85 56 27 24 22 29 56 100 100 100 100 100 100 100 99 100 100 94 88 100 96 95 98 93 100 100 100
4 4 4 6 7 6 9 11 16 42 70 100 100 100 100 100 92 81 98 100 99 100 85 62 40 31 29 25 52 60 100 100 100 100 100 100 100 100 100 79 69 86 81 72 69 66 76 96 100
5 4 5 8 7 6 8 11 16 38 73 98 100 100 100 100 85 81 96 86 96 95 80 55 44 28 27 34 98 100 82 100 100 100 100 100 100 100 100 93 65 100 95 89 96 100 100 99 100
5 4 5 7 8 6 10 12 18 45 79 100 100 100 100 100 93 82 98 91 78 84 78 56 44 35 32 28 100 100 100 100 100 100 100 100 100 100 100 100 92 89 93 77 78 81 72 69 74
6 6 6 7 8 8 10 14 20 44 72 100 100 100 100 100 89 78 94 85 81 74 73 71 49 54 30 37 100 100 100 100 100 100 100 98 100 100 100 100 100 100 100 95 67 68 99 100 100
Wind_Speed
73 75 73 75 74 54 46 63 73 71 74 67 74 85 86 88 82 75 71 69 69 66 63 58 56 54 51 49 48 49 47 44 40 35 34 33 41 43 38 35 30 25 19 24 27 27 24 26 32
81 84 83 82 74 57 33 48 68 76 77 79 76 81 86 84 85 80 79 75 73 71 70 66 62 57 56 55 51 50 48 45 41 40 37 34 38 49 43 41 32 28 18 21 23 27 21 26 30
89 92 95 95 78 52 38 49 65 75 81 85 85 87 82 82 81 88 84 83 77 75 71 67 66 62 59 59 55 51 51 50 47 44 41 38 35 44 47 42 36 32 24 22 25 29 26 24 29
102 104 103 103 74 47 51 59 69 78 83 86 90 88 87 80 83 85 86 86 83 79 78 73 68 68 65 62 59 55 52 52 50 49 47 43 41 41 47 49 45 35 32 33 26 30 27 26 28
112 114 113 105 76 49 61 63 72 79 84 91 94 93 87 86 86 83 84 87 86 86 82 78 74 72 66 68 65 60 58 56 53 51 50 48 44 40 44 49 47 43 33 32 24 26 27 32 30
119 118 116 99 76 67 67 71 78 82 89 92 94 99 94 96 95 87 82 85 86 87 86 82 77 74 71 70 68 65 64 61 57 55 54 51 47 46 44 47 48 48 40 30 28 26 30 31 33
124 126 120 101 85 73 71 84 80 90 89 94 94 101 101 100 100 98 86 86 85 86 85 87 77 76 77 73 73 73 70 66 62 59 56 54 50 46 47 45 47 49 46 38 33 31 31 39 37
124 123 121 110 87 70 87 89 91 94 98 97 102 97 98 100 102 100 92 90 87 85 84 86 86 79 68 72 71 76 77 72 65 63 62 60 55 51 46 47 47 44 47 45 38 33 39 43 37
112 118 115 106 90 78 95 94 96 97 104 103 100 102 100 106 107 102 95 92 90 85 84 85 83 82 74 74 71 71 76 77 70 67 68 64 57 54 52 48 48 47 41 41 44 39 36 41 37
106 106 103 97 94 91 100 98 105 106 108 112 103 106 105 110 108 104 97 93 92 89 85 85 83 85 82 77 78 73 70 70 69 68 67 61 60 56 55 52 52 53 53 39 44 38 44 45 40
86 88 89 90 91 92 93 100 112 111 116 111 104 108 107 106 107 105 101 98 94 94 90 89 87 83 82 78 74 60 76 74 74 73 71 66 63 62 57 56 58 58 57 52 36 34 45 47 36
70 73 79 80 84 87 90 100 115 117 107 112 115 114 114 112 111 110 104 105 100 95 93 90 90 85 81 79 73 62 66 68 74 74 71 67 65 63 64 60 53 59 55 53 41 39 46 43 34
61 69 72 75 78 81 87 101 115 120 117 119 125 124 119 114 108 109 108 106 105 96 94 92 90 88 84 79 73 78 68 65 68 71 72 71 69 68 65 62 62 56 53 47 41 42 47 40 34
59 62 65 70 72 76 84 99 116 114 117 121 124 124 123 117 109 107 110 107 105 101 96 94 91 91 85 83 79 75 73 66 66 66 72 73 72 71 71 65 61 56 58 52 46 43 47 42 39
56 55 62 63 69 75 86 92 107 113 120 122 123 125 124 120 114 103 107 109 109 105 104 97 94 92 90 84 81 75 72 84 83 86 78 69 69 70 73 67 58 56 56 46 49 45 50 45 40
55 53 55 61 68 74 79 87 108 116 120 122 120 121 123 120 111 106 106 107 109 112 106 102 97 94 94 89 86 82 79 75 71 74 75 71 68 70 74 73 63 56 56 55 47 48 49 45 44
54 52 50 64 63 71 78 95 109 117 120 121 120 119 120 119 111 107 106 105 106 108 110 103 101 97 94 95 90 92 79 72 68 77 73 72 72 70 68 71 72 61 59 54 53 54 54 51 50
49 46 52 58 59 69 79 98 111 116 119 120 120 115 119 118 110 108 107 105 104 103 104 105 103 101 98 96 94 95 94 92 81 77 77 75 77 75 70 70 67 67 64 61 58 59 54 52 49
45 42 48 55 56 64 77 102 111 116 123 123 121 117 117 113 107 110 108 106 102 100 101 100 102 99 101 98 99 98 94 92 84 73 65 67 76 77 78 76 73 69 68 68 65 62 63 54 50
36 39 47 54 56 63 81 99 111 117 123 123 118 111 109 104 102 103 106 104 101 100 101 97 100 99 100 99 99 95 89 80 84 75 71 70 69 73 78 79 82 80 70 70 69 67 63 59 56
30 38 48 51 52 59 79 97 112 115 123 118 116 113 105 101 93 98 100 102 100 97 98 96 97 97 99 97 100 101 95 82 79 72 65 62 71 76 76 80 80 83 78 75 72 76 71 67 63
27 34 45 49 51 62 81 96 107 112 118 113 109 102 100 95 89 93 97 99 97 98 97 99 95 93 97 95 98 103 93 89 78 80 73 60 61 72 80 78 80 77 74 78 76 71 71 70 68
22 31 44 49 57 66 79 95 105 111 113 106 102 97 90 96 91 90 92 92 94 97 95 99 99 95 98 101 100 102 98 99 90 82 73 76 76 73 75 72 76 76 76 70 70 69 68 66 66
19 27 40 46 53 61 76 92 106 114 115 111 105 98 102 97 92 91 90 91 92 91 91 95 95 96 100 103 102 99 96 96 92 75 74 79 68 66 69 71 69 67 69 69 73 73 71 67 63
12 21 34 44 50 62 77 95 106 108 110 107 104 103 99 97 96 96 95 92 90 91 96 96 96 95 99 105 105 97 95 91 89 75 78 86 85 75 80 76 72 69 69 69 70 71 73 74 74
11 20 33 47 60 69 83 98 106 108 110 104 105 103 104 97 100 98 97 94 90 94 98 98 99 96 98 105 104 97 95 85 81 80 81 80 83 76 83 82 76 78 77 76 72 71 78 76 73
14 25 36 50 62 70 84 95 102 108 109 110 100 98 102 108 103 101 100 97 97 97 99 100 98 95 94 103 99 104 103 94 88 89 84 88 84 89 83 83 76 76 75 74 77 77 79 85 85
10 23 38 52 59 66 80 93 100 108 109 106 101 102 102 98 103 101 102 100 96 98 98 101 102 101 97 104 97 95 102 93 100 92 91 92 87 85 84 82 77 76 73 73 75 75 77 79 77
10 22 36 50 57 63 75 90 99 108 109 107 106 106 102 98 100 104 104 101 98 99 98 99 101 101 98 103 106 102 101 96 109 102 94 87 88 87 89 81 79 77 78 80 81 81 79 79 79
8 16 33 48 58 64 72 90 99 107 110 110 111 105 104 108 100 104 104 100 96 98 99 96 103 97 100 106 110 112 107 105 105 102 105 95 90 82 87 83 79 78 77 75 83 87 79 78 82
Wind_Direction
282 281 280 277 275 266 239 238 232 238 233 233 238 237 235 233 232 224 221 221 219 219 219 222 224 224 219 220 221 225 230 233 237 242 242 249 245 241 244 250 250 267 266 277 269 296 324 326 334
283 281 279 277 271 254 233 241 233 234 236 232 233 233 235 234 234 231 226 222 221 219 219 219 220 225 225 226 223 228 230 233 238 243 247 250 250 240 245 249 252 265 265 287 284 279 317 320 329
282 279 276 275 268 247 236 250 232 232 232 237 232 229 231 232 233 233 229 230 225 223 217 217 218 223 229 231 226 229 231 233 238 243 246 252 253 246 241 247 253 260 257 275 283 266 290 314 326
279 277 275 277 263 234 239 236 233 226 230 231 235 229 226 229 232 230 230 230 228 223 218 218 222 222 228 231 231 231 233 235 236 241 244 247 253 253 247 245 250 259 264 267 277 269 281 297 315
278 276 273 273 263 261 249 238 232 226 226 227 232 231 224 223 225 225 223 228 229 225 223 224 224 223 226 232 232 230 234 236 239 241 244 246 248 255 247 244 248 257 268 260 279 271 278 290 304
276 275 272 270 264 256 245 231 227 223 223 225 228 230 226 223 223 223 221 224 225 225 224 228 225 225 226 229 231 232 235 235 239 242 246 249 248 251 250 245 247 251 265 267 268 276 273 288 298
274 272 272 266 256 245 239 229 222 220 219 222 224 226 226 224 220 222 219 220 221 223 224 226 224 228 229 230 230 233 234 235 237 242 245 250 251 247 251 249 246 252 263 262 275 281 281 285 290
269 267 265 264 254 239 246 233 221 216 215 217 221 223 223 226 219 219 217 219 217 219 221 225 225 223 224 229 229 231 233 237 239 244 246 248 250 248 249 251 246 253 257 267 267 286 279 279 288
264 263 262 260 252 241 241 231 220 214 212 212 218 221 220 223 220 216 216 217 218 217 220 223 223 223 224 222 225 230 233 235 238 245 244 244 245 247 247 250 246 248 248 260 265 276 281 274 290
262 259 257 252 246 239 233 224 217 212 209 210 214 220 219 220 219 216 215 217 217 216 215 218 217 220 219 223 223 229 230 234 239 241 240 236 240 242 247 248 246 243 246 249 266 268 270 268 280
258 255 250 247 240 235 228 220 214 208 208 207 208 221 219 220 218 216 216 216 216 215 213 214 214 215 216 219 219 220 236 236 238 239 239 234 233 237 238 242 247 248 250 251 255 265 270 268 278
258 252 245 241 237 231 224 216 215 208 203 205 207 217 218 217 216 214 215 215 214 215 214 212 215 215 216 217 218 223 241 234 236 237 238 238 232 238 240 237 239 244 245 246 247 269 264 267 263
256 248 242 236 231 225 220 214 211 206 199 202 206 213 216 215 214 213 215 215 213 213 215 213 213 214 215 216 215 210 227 226 231 235 236 238 232 232 236 237 238 238 240 244 251 257 256 256 261
256 247 241 234 225 221 215 211 207 204 201 201 206 210 214 215 214 210 214 215 214 211 215 215 214 213 213 213 213 215 224 232 236 233 241 237 237 234 234 237 239 243 243 243 250 252 255 261 257
259 248 241 231 225 219 212 207 205 203 201 203 206 208 212 213 214 210 213 214 214 211 211 213 213 214 212 213 211 209 219 236 241 242 233 234 236 235 235 236 238 239 244 245 251 245 251 262 253
256 249 240 233 222 217 211 202 202 204 201 204 205 209 211 212 211 210 212 214 214 213 211 212 212 213 213 211 211 210 214 220 224 224 228 234 236 237 236 236 234 234 240 242 244 247 247 251 254
257 244 233 231 220 214 206 199 203 201 201 203 205 209 211 211 209 209 211 213 214 213 213 212 213 213 214 212 211 208 208 212 227 223 237 236 237 239 239 240 236 234 236 240 243 243 246 245 254
253 241 234 231 219 213 201 197 203 200 200 202 205 209 209 211 208 209 210 211 213 213 211 211 212 213 214 213 211 211 216 223 234 235 234 236 238 238 239 238 233 233 235 236 238 243 249 250 250
247 236 227 228 220 211 198 198 202 198 197 200 203 207 209 210 209 209 210 211 212 211 210 210 211 211 212 214 212 213 216 221 230 233 235 237 237 235 238 239 239 233 237 236 241 246 248 250 249
246 230 226 218 218 204 200 198 198 197 196 200 203 205 208 208 210 211 211 210 211 211 211 209 210 211 210 213 214 213 214 215 219 230 233 234 236 235 237 239 239 238 237 237 243 246 246 249 248
243 223 222 216 211 203 201 197 198 197 197 197 203 206 207 205 207 210 211 210 210 211 211 206 207 210 210 209 212 213 213 216 218 222 225 227 238 238 236 238 241 241 239 241 241 247 248 252 251
239 223 215 214 201 199 200 195 197 197 198 197 201 204 209 204 206 208 209 210 209 210 210 206 206 207 209 208 209 211 207 209 214 221 215 236 227 237 234 238 240 243 244 242 241 246 252 253 251
232 217 211 210 197 196 197 195 195 195 196 195 199 201 204 206 203 205 207 208 208 208 210 209 208 209 209 206 208 211 213 214 215 221 223 222 230 227 238 237 239 243 243 245 243 242 248 251 252
233 212 208 206 200 192 196 194 195 194 194 195 199 200 202 202 201 203 205 206 206 205 208 210 208 207 208 206 207 209 212 214 216 212 213 218 225 232 234 230 236 237 239 244 243 243 242 247 246
223 210 206 199 196 193 194 194 195 193 193 193 198 202 204 201 200 201 203 205 203 204 209 207 206 207 206 204 207 207 210 210 213 217 217 222 226 232 231 232 228 231 235 238 240 242 246 247 249
200 200 198 195 194 193 194 193 195 192 191 191 200 200 204 200 203 200 201 204 202 205 210 207 206 206 207 203 203 199 202 206 212 213 216 222 226 227 231 233 231 234 239 240 242 245 245 244 246
206 191 195 194 197 194 194 194 194 191 191 192 198 201 203 203 202 201 202 202 201 206 208 207 207 206 206 205 205 207 209 211 211 212 217 218 224 227 235 237 233 236 236 240 244 248 247 244 247
204 192 193 193 199 199 194 194 193 191 192 193 195 201 205 206 205 202 203 204 202 205 207 207 206 207 206 204 201 205 208 210 213 212 218 220 224 227 230 234 236 236 238 242 243 242 242 243 244
210 198 195 195 199 198 195 195 193 191 192 193 193 199 204 205 205 204 204 204 203 206 207 207 207 209 209 207 200 201 203 206 210 211 213 219 224 227 231 233 235 235 237 242 244 245 248 249 250
203 205 198 198 198 198 195 195 194 194 193 192 194 199 205 206 204 206 206 205 206 206 207 208 207 209 208 207 203 200 203 205 209 212 215 215 221 227 233 233 233 237 236 238 239 242 244 244 246